OM6ACB-6 Weather Reports


Display with metric or nautical units.
time (UTC)temp
F
wind
direction
speed
MPH
gust
MPH
rain 1hr
in
rain 24hr
in
rain mn
in
humidity
%
barometer
mb
20260505011433 36 0 0.0 0.0 0.00 0.00 0.00 43 1015.3
20260505010433 37 0 0.0 0.0 0.00 0.00 0.00 45 1015.3
20260505005433 37 0 0.0 0.0 0.00 0.00 0.00 45 1015.3
20260505004433 37 0 0.0 0.0 0.00 0.00 0.00 44 1015.4
20260505003432 36 0 0.0 0.0 0.00 0.00 0.00 42 1015.5
20260505002432 37 0 0.0 0.0 0.00 0.00 0.00 37 1015.7
20260505001432 37 0 0.0 0.0 0.00 0.00 0.00 37 1015.8
20260505000431 37 0 0.0 0.0 0.00 0.00 0.00 37 1015.9
20260504235431 37 0 0.0 0.0 0.00 0.00 0.00 37 1016.0
20260504234431 38 0 0.0 0.0 0.00 0.00 0.00 36 1016.1
20260504233430 40 0 0.0 0.0 0.00 0.00 0.00 30 1016.4
20260504232430 40 0 0.0 0.0 0.00 0.00 0.00 30 1016.5
20260504231430 40 0 0.0 0.0 0.00 0.00 0.00 30 1016.5
20260504230430 40 0 0.0 0.0 0.00 0.00 0.00 30 1016.6
20260504225429 39 0 0.0 0.0 0.00 0.00 0.00 36 1016.5
20260504224429 39 0 0.0 0.0 0.00 0.00 0.00 36 1016.5
20260504223429 40 0 0.0 0.0 0.00 0.00 0.00 33 1016.5
20260504222428 40 0 0.0 0.0 0.00 0.00 0.00 35 1016.6
20260504221428 40 0 0.0 0.0 0.00 0.00 0.00 35 1016.6
20260504220428 41 0 0.0 0.0 0.00 0.00 0.00 30 1016.8
20260504215428 42 0 0.0 0.0 0.00 0.00 0.00 30 1016.8
20260504214427 42 0 0.0 0.0 0.00 0.00 0.00 30 1016.8
20260504213427 43 0 0.0 0.0 0.00 0.00 0.00 29 1017.0
20260504212427 43 0 0.0 0.0 0.00 0.00 0.00 29 1017.0
20260504211426 45 0 0.0 0.0 0.00 0.00 0.00 29 1017.1
20260504210426 44 0 0.0 0.0 0.00 0.00 0.00 29 1017.0
20260504205426 44 0 0.0 0.0 0.00 0.00 0.00 29 1017.0
20260504204425 46 0 0.0 0.0 0.00 0.00 0.00 29 1017.2
20260504203425 47 0 0.0 0.0 0.00 0.00 0.00 28 1017.2
20260504202425 48 0 0.0 0.0 0.00 0.00 0.00 28 1017.2
20260504201425 48 0 0.0 0.0 0.00 0.00 0.00 28 1017.2
20260504200424 48 0 0.0 0.0 0.00 0.00 0.00 28 1017.1
20260504195424 49 0 0.0 0.0 0.00 0.00 0.00 28 950.9
20260504194424 -25 0 0.0 0.0 0.00 0.00 0.00 13 950.8
20260504193423 -25 0 0.0 0.0 0.00 0.00 0.00 13 950.8
20260504192423 -25 0 0.0 0.0 0.00 0.00 0.00 13 950.7
20260504191423 -25 0 0.0 0.0 0.00 0.00 0.00 13 950.6
20260504190423 -25 0 0.0 0.0 0.00 0.00 0.00 13 950.6
20260504185422 -25 0 0.0 0.0 0.00 0.00 0.00 13 950.5
20260504184422 -25 0 0.0 0.0 0.00 0.00 0.00 13 950.5
20260504183422 -25 0 0.0 0.0 0.00 0.00 0.00 13 950.4
20260504182421 59 0 0.0 0.0 0.00 0.00 0.00 25 1017.6
20260504181421 59 1 0.0 0.0 0.00 0.00 0.00 25 1017.6
20260504180421 60 345 1.0 1.0 0.00 0.00 0.00 25 1017.6
20260504175421 62 314 0.0 1.0 0.00 0.00 0.00 24 1017.7
20260504174420 63 0 0.0 0.0 0.00 0.00 0.00 24 1017.9
20260504173420 65 293 1.0 1.0 0.00 0.00 0.00 23 1017.9
20260504172420 66 328 1.0 2.0 0.00 0.00 0.00 23 1018.1
20260504171419 68 270 1.0 3.0 0.00 0.00 0.00 23 1018.2
20260504170419 68 298 1.0 3.0 0.00 0.00 0.00 23 1018.3
20260504160417 74 311 2.0 4.0 0.00 0.00 0.00 21 1018.8
20260504150416 77 300 5.0 8.0 0.00 0.00 0.00 20 1019.4
20260504140414 77 264 4.0 9.0 0.00 0.00 0.00 20 1019.7
20260504130412 78 269 4.0 10.0 0.00 0.00 0.00 20 1020.4
20260504110409 77 272 6.0 8.0 0.00 0.00 0.00 20 1021.4
20260504100407 72 297 6.0 8.0 0.00 0.00 0.00 21 1021.6
20260504081404 70 278 5.0 8.0 0.00 0.00 0.00 22 1022.0
20260504080403 70 260 4.0 6.0 0.00 0.00 0.00 22 1022.0
20260504070402 64 162 2.0 5.0 0.00 0.00 0.00 24 1021.8
20260504050358 48 0 0.0 0.0 0.00 0.00 0.00 28 1020.7
20260504045358 44 0 0.0 0.0 0.00 0.00 0.00 29 1020.2
20260504044357 44 0 0.0 0.0 0.00 0.00 0.00 29 1020.0
20260504043357 42 0 0.0 0.0 0.00 0.00 0.00 30 1019.9
20260504042357 41 0 0.0 0.0 0.00 0.00 0.00 30 1019.8
20260504041357 39 0 0.0 0.0 0.00 0.00 0.00 31 1019.6
20260504040356 38 0 0.0 0.0 0.00 0.00 0.00 31 1019.4
20260504035356 36 0 0.0 0.0 0.00 0.00 0.00 33 1019.2
20260504034356 33 0 0.0 0.0 0.00 0.00 0.00 59 1018.9
20260504033355 32 0 0.0 0.0 0.00 0.00 0.00 63 1018.7
20260504032355 31 0 0.0 0.0 0.00 0.00 0.00 62 1018.6
20260504031355 31 0 0.0 0.0 0.00 0.00 0.00 61 1018.6
20260504030354 33 0 0.0 0.0 0.00 0.00 0.00 61 1018.8
20260504025354 33 0 0.0 0.0 0.00 0.00 0.00 61 1018.8
20260504024354 33 0 0.0 0.0 0.00 0.00 0.00 63 1018.8
20260504023354 31 0 0.0 0.0 0.00 0.00 0.00 62 1018.6
20260504022353 30 0 0.0 0.0 0.00 0.00 0.00 58 1018.6
20260504021353 32 0 0.0 0.0 0.00 0.00 0.00 57 1018.7
20260504020353 32 0 0.0 0.0 0.00 0.00 0.00 53 1018.8
20260504015352 33 0 0.0 0.0 0.00 0.00 0.00 50 1018.8
20260504014352 33 0 0.0 0.0 0.00 0.00 0.00 49 1018.8
20260504013352 33 45 0.0 0.0 0.00 0.00 0.00 50 1018.8
20260504012352 34 0 0.0 0.0 0.00 0.00 0.00 51 1018.9